SCP
0 0 0 0 0 0 0 0 0 0 0 0 0 0 0 0 0 0 0 0 0 0 0 0 0 0 0 0 0 0 0 0 0 0 0 0 0 0 0 0 0 0 0 0
0 0 0 0 0 0 0 0 0 0 0 0 0 0 0 0 0 0 0 0 0 0 0 0 0 0 0 0 0 0 0 0 0 0 0 0 0 0 0 0 0 0 0 0
0 0 0 0 0 0 0 0 0 0 0 0 0 0 0 0 0 0 0 0 0 0 0 0 0 0 0 0 0 0 0 0 0 0 0 0 0 0 0 0 0 0 0 0
0 0 0 0 0 0 0 0 0 0 0 0 0 0 0 0 0 0 0 0 0 0 0 0 0 0 0 0 0 0 0 0 0 0 0 0 0 0 0 0 0 0 0 0
0 0 0 0 0 0 0 0 0 0 0 0 0 0 0 0 0 0 0 0 0 0 0 0 0 0 0 0 0 0 0 0 0 0 0 0 0 0 0 0 0 0 0 0
0 0 0 0 0 0 0 0 0 0 0 0 0 0 0 0 0 0 0 0 0 0 0 0 0 0 0 0 0 0 0 0 0 0 0 0 0 0 0 0 0 0 0 0
0 0 0 0 0 0 0 0 0 0 0 0 0 0 0 0 0 0 0 0 0 0 0 0 0 0 0 0 0 0 0 0 0 0 0 0 0 0 0 0 0 0 0 0
0 0 0 0 0 0 0 0 0 0 0 0 0 0 0 0 0 0 0 0 0 0 0 0 0 0 0 0 0 0 0 0 0 0 0 0 0 0 0 0 0 0 -0 -0
0 0 0 0 0 0 0 0 0 0 0 0 0 0 0 0 0 0 0 0 0 0 0 0 0 0 0 0 0 0 0 0 0 0 0 0 0 0 0 0 0 0 0 -0
0 0 0 0 0 0 0 0 0 0 0 0 0 0 0 0 0 0 0 0 0 0 0 0 0 0 0 0 0 0 0 0 0 0 0 0 0 0 0 0 0 0 0 0
0 0 0 0 0 0 0 0 0 0 0 0 0 0 0 0 0 0 0 0 0 0 0 0 0 0 0 0 0 0 0 0 0 0 0 0 0 0 0 0 0 0 0 0
0 0 0 0 0 0 0 0 0 0 0 0 0 0 0 0 0 0 0 0 0 0 0 0 0 0 0 0 0 0 0 0 0 0 0 0 0 0 0 0 0 0 0 0
0 0 0 0 0 0 0 0 0 0 0 0 0 0 0 0 0 0 0 0 0 0 0 0 0 0 0 0 0 0 0 0 0 0 0 0 0 0 0 0 0 0 0 0
0 0 0 0 0 0 0 0 0 0 0 0 0 0 0 0 0 0 0 0 0 0 0 0 0 0 0 0 0 0 0 0 0 0 0 0 0 0 0 0 0 0 0 0
0 0 0 0 0 0 0 0 0 0 0 0 0 0 0 0 0 0 0 0 0 0 0 0 0 0 0 0 0 0 0 0 0 0 0 0 0 0 0 0 0 0 0 0
0 0 0 0 0 0 0 0 0 0 0 0 0 0 0 0 0 0 0 0 0 0 0 0 0 0 0 0 0 0 0 0 0 0 0 0 0 0 0 0 0 0 0 0
0 0 0 0 0 0 0 0 0 0 0 0 0 0 0 0 0 0 0 0 0 0 0 0 0 0 0 0 0 0 0 0 0 0 0 0 0 0 0 0 0 0 0 0
0 0 0 0 0 0 0 0 0 0 0 0 0 0 0 0 0 0 0 0 0 0 0 0 0 0 0 0 0 0 0 0 0 0 0 0 0 0 0 0 0 0 0 0
0 0 0 0 0 0 0 0 0 0 0 0 0 0 0 0 0 0 0 0 0 0 0 0 0 0 0 0 0 0 0 0 0 0 0 0 0 0 0 0 0 0 0 0
0 0 0 0 0 0 0 0 0 0 0 0 0 0 0 0 0 0 0 0 0 0 0 0 0 0 0 0 0 0 0 0 0 0 0 0 0 0 0 0 0 0 0 0
0 0 0 0 0 0 0 0 0 0 0 0 0 0 0 0 0 0 0 0 0 0 0 0 0 0 0 0 0 0 0 0 0 0 0 0 0 0 0 0 0 0 0 0
0 0 0 0 0 0 0 0 0 0 0 0 0 0 0 0 0 0 0 0 0 0 0 0 0 0 0 0 0 0 0 0 0 0 0 0 0 0 0 0 0 0 0 0
0 0 0 0 0 0 0 0 0 0 0 0 0 0 0 0 0 0 0 0 0 0 0 0 0 0 0 0 0 0 0 0 0 0 0 0 0 0 0 0 0 0 0 0
0 0 0 0 0 0 0 0 0 0 0 0 0 0 0 0 0 0 0 0 0 0 0 0 0 0 0 0 0 0 0 0 0 0 0 0 0 0 0 0 0 0 0 0
0 0 0 0 0 0 0 0 0 0 0 0 0 0 0 0 0 0 0 0 0 0 0 0 0 0 0 0 0 0 0 0 0 0 0 0 0 0 0 0 0 0 0 0
0 0 0 0 0 0 0 0 0 0 0 0 0 0 0 0 0 0 0 0 0 0 0 0 0 0 0 0 0 0 0 0 0 0 0 0 0 0 0 0 0 0 0 0
0 0 0 0 0 0 0 0 0 0 0 0 0 0 0 0 0 0 0 0 0 0 0 0 0 0 0 0 0 0 0 0 0 0 0 0 0 0 0 0 0 0 0 0
Wind_Speed
6 7 5 5 7 5 3 5 5 6 6 7 6 4 4 4 4 4 4 3 3 3 3 3 3 2 2 2 2 3 3 3 2 2 1 1 1 1 1 1 1 1 1 2
5 5 3 4 6 6 4 3 3 4 5 5 3 1 1 3 5 5 4 4 3 3 3 3 4 3 3 3 3 3 4 3 2 2 1 1 1 0 0 0 1 1 2 2
4 6 3 3 4 3 2 1 1 3 5 4 3 1 2 4 4 4 4 4 4 4 4 4 4 4 4 3 3 3 3 3 2 2 2 1 1 1 0 1 1 2 2 2
2 4 1 5 2 2 2 3 3 3 4 3 3 2 1 2 4 3 3 3 3 3 3 3 3 3 3 3 3 3 3 2 3 3 2 1 1 1 1 1 1 2 3 3
0 2 5 5 4 3 2 4 4 4 5 5 4 4 2 0 2 3 4 3 3 3 3 3 3 4 4 3 3 3 3 2 2 3 3 2 2 2 1 1 2 2 2 3
0 1 3 4 6 6 1 3 5 4 4 3 3 2 3 1 0 1 1 2 2 2 2 3 3 4 4 3 3 3 3 3 2 3 3 3 3 2 1 1 2 2 3 3
1 2 5 5 7 5 2 5 6 4 4 2 2 3 4 2 1 2 2 1 2 3 3 3 4 5 4 3 4 4 3 2 2 2 3 3 2 1 1 1 2 2 3 4
0 1 5 6 5 2 4 5 4 4 4 3 3 3 2 1 1 3 2 2 3 3 3 2 4 5 4 3 3 2 2 2 2 2 2 2 1 1 1 1 1 2 3 4
4 6 6 5 4 5 4 4 4 3 4 2 2 2 2 0 1 2 3 2 2 4 3 2 3 4 4 3 2 3 2 2 2 1 1 1 1 1 1 1 1 2 2 3
4 7 7 7 6 5 4 4 5 4 4 2 2 1 1 0 1 2 2 2 2 3 3 2 2 2 3 2 3 3 3 2 1 1 1 0 0 1 1 1 2 2 2 3
6 8 8 6 5 5 5 5 5 5 3 2 1 1 1 1 1 2 2 1 2 3 3 2 2 2 2 2 4 4 2 2 1 1 1 1 1 1 2 3 4 3 3 3
7 6 5 9 8 7 6 5 5 4 4 3 1 1 0 1 1 2 2 2 2 2 2 2 2 2 2 3 4 4 2 1 1 1 1 1 1 3 3 4 5 6 7 6
8 7 7 9 9 6 5 5 5 4 2 2 2 0 1 1 1 2 3 3 3 3 2 2 2 1 1 3 3 3 2 2 1 1 1 1 1 1 3 5 4 3 4 5
6 5 6 6 6 6 4 4 3 2 1 0 0 1 2 2 2 2 2 2 3 3 2 2 2 1 1 3 3 3 2 2 2 1 1 1 1 1 2 2 4 5 5 5
7 5 6 6 5 4 2 1 1 1 1 1 1 1 2 2 2 1 2 2 3 3 2 2 1 2 1 3 3 3 2 1 1 1 1 1 1 1 1 2 2 3 4 5
7 5 4 4 4 3 1 0 1 1 0 0 0 1 1 2 1 2 2 3 3 2 2 2 2 2 2 3 3 2 1 1 1 1 0 0 1 1 2 2 3 3 3 4
4 5 4 4 4 3 2 2 3 2 2 1 1 1 2 2 2 2 1 1 2 2 2 2 2 1 2 3 3 2 1 1 1 1 0 0 1 1 2 2 2 3 3 3
5 5 5 4 4 3 2 2 2 2 2 2 2 2 3 3 2 2 1 1 2 1 0 1 1 1 2 2 2 2 2 1 1 1 0 1 1 1 1 2 2 3 3 3
4 4 4 3 2 2 2 2 2 2 2 2 3 2 2 2 2 2 2 3 2 2 2 1 1 2 2 2 3 2 2 2 1 1 1 1 1 1 1 2 2 2 2 3
4 3 2 2 1 1 1 1 2 2 2 2 2 2 2 2 2 2 2 2 3 3 2 2 2 2 2 2 3 2 2 2 1 0 1 1 1 2 2 2 2 2 2 2
4 3 2 2 2 2 1 2 3 2 2 2 3 3 3 2 2 2 2 2 3 2 2 3 2 2 2 2 3 2 2 2 1 0 0 0 1 2 2 2 2 2 2 2
4 3 3 2 2 2 1 1 2 2 2 2 2 2 3 2 2 2 2 3 2 3 3 2 2 3 3 4 3 2 2 1 1 0 0 0 1 1 2 2 2 2 2 2
4 4 3 2 2 2 1 1 2 2 3 3 3 3 4 3 3 3 2 2 2 3 3 2 3 5 5 3 2 2 2 2 1 1 1 0 0 1 1 2 2 2 2 2
4 3 3 2 1 0 1 2 1 2 2 2 3 3 3 2 2 2 1 2 4 4 3 3 5 5 5 2 2 2 2 2 1 1 1 0 0 1 1 1 2 2 2 2
4 2 1 1 1 2 2 1 0 1 1 1 1 2 3 3 3 2 2 3 4 5 3 4 5 5 4 3 3 3 2 2 2 2 1 1 1 1 1 1 1 1 2 2
3 2 2 2 2 2 2 1 1 2 2 1 1 1 1 2 2 2 2 3 4 4 3 3 3 4 3 3 3 3 2 2 2 1 1 1 1 1 1 1 1 1 2 2
3 2 1 2 1 1 1 2 2 3 3 3 2 2 2 2 2 2 3 2 3 3 3 2 3 3 3 3 3 2 2 2 2 2 1 1 1 1 1 1 1 1 1 1
Wind_Direction
259 267 267 280 292 297 244 217 222 262 261 273 272 248 220 195 174 165 166 167 175 169 166 159 154 155 149 148 146 143 139 146 168 168 151 146 158 165 174 204 230 234 253 278
295 289 290 297 306 303 289 278 267 287 282 298 313 351 169 182 172 177 181 181 181 172 163 168 170 168 162 167 159 145 142 153 156 143 144 154 168 160 158 298 300 281 272 280
296 313 341 316 309 309 305 312 270 272 286 328 339 297 197 191 180 184 182 179 180 184 182 185 180 173 177 178 153 146 156 162 155 156 168 193 179 140 235 284 300 295 290 292
307 357 284 254 311 333 315 344 8 345 335 336 320 307 264 184 171 171 180 179 189 192 188 182 170 166 164 153 151 157 168 178 171 159 180 193 171 227 261 274 270 273 283 289
32 305 286 315 347 339 316 314 8 2 348 350 7 20 360 53 150 176 183 187 197 193 184 169 166 161 148 150 153 161 179 195 198 174 183 199 211 242 265 271 283 283 285 287
42 287 278 293 330 326 350 310 347 345 330 334 2 358 293 291 163 163 155 155 159 159 148 155 158 141 143 156 162 187 201 208 210 186 189 210 224 245 260 257 272 291 297 291
231 262 275 305 335 2 27 293 316 309 298 296 285 254 268 279 226 168 158 155 147 146 155 171 154 144 154 169 197 209 200 197 204 200 198 208 219 249 260 277 299 309 309 309
215 267 275 335 0 9 264 288 303 297 294 292 299 309 298 239 167 149 140 135 140 144 158 158 152 152 166 196 209 188 177 187 200 203 202 187 179 239 257 257 302 315 319 318
219 237 270 303 291 291 286 298 302 292 292 283 299 307 315 340 145 150 150 151 148 147 147 148 158 163 179 209 175 156 158 179 189 185 181 173 184 231 272 267 281 298 304 307
283 281 292 300 304 312 311 306 307 301 295 274 277 293 328 166 159 145 146 152 142 132 136 157 170 180 196 185 150 145 157 173 174 169 193 192 194 231 246 259 266 282 289 292
276 286 309 313 311 318 328 330 328 323 314 279 244 271 230 180 175 159 142 133 135 142 156 168 167 180 180 152 140 143 154 163 169 174 197 258 284 258 253 253 234 245 262 263
257 265 274 286 297 305 311 312 311 317 326 329 310 240 204 148 170 159 145 137 134 139 149 158 156 167 165 157 150 150 161 178 191 202 223 244 295 319 302 267 275 259 249 252
256 274 270 277 289 292 295 295 297 297 285 311 331 342 138 115 130 136 135 141 153 162 159 151 146 152 168 157 149 155 174 195 205 212 229 255 268 297 317 329 334 313 287 277
271 277 282 284 286 297 299 299 314 326 336 356 9 84 98 92 99 126 153 168 153 136 131 136 138 195 202 160 155 166 179 199 202 210 218 237 252 268 281 309 324 326 328 321
298 276 263 280 289 303 307 352 37 14 23 19 44 104 114 119 134 162 161 139 123 117 130 144 171 234 194 159 162 173 178 196 198 203 214 237 263 293 308 308 304 309 324 336
306 304 290 290 291 294 276 207 183 250 266 346 102 148 155 144 127 111 119 133 134 158 188 182 213 232 172 155 153 155 172 192 162 148 89 349 338 335 329 325 321 324 330 333
298 304 307 306 296 283 252 216 203 208 209 205 208 175 126 108 90 94 117 147 160 175 184 188 217 210 151 151 150 155 150 126 96 96 82 324 319 318 317 319 322 327 329 334
257 258 260 258 258 259 252 211 194 196 211 218 179 143 138 144 158 176 168 134 113 86 274 220 202 154 145 152 150 143 133 119 102 93 23 0 335 325 327 327 329 333 335 349
297 289 285 269 248 217 215 206 197 193 191 170 156 164 178 186 182 166 146 142 151 191 252 240 162 140 151 158 138 129 126 115 95 66 33 17 11 6 357 343 338 339 339 346
327 313 297 291 287 225 205 202 176 177 184 163 153 153 174 196 175 154 154 183 209 213 210 173 152 154 165 155 138 130 131 130 126 96 32 23 6 352 350 345 347 350 352 349
326 324 323 312 301 276 218 191 178 189 195 169 171 186 199 200 172 157 161 218 251 206 172 158 153 162 159 143 139 132 132 134 140 145 94 1 349 344 342 340 345 349 348 347
323 314 306 303 294 291 272 210 187 183 178 185 190 179 170 173 175 182 207 214 220 179 165 164 164 161 149 139 134 138 141 142 146 159 198 297 316 323 324 330 335 337 341 343
312 302 294 278 257 266 280 234 189 184 190 194 188 186 187 191 187 182 225 231 184 173 169 177 172 161 150 140 141 147 152 161 176 194 212 244 279 294 313 327 333 337 342 344
311 301 294 298 297 177 232 256 231 219 212 197 195 190 178 177 217 228 207 179 170 165 170 180 173 167 155 148 150 154 162 175 184 182 187 226 289 314 319 323 329 337 342 341
305 302 317 354 260 234 228 218 189 226 203 198 199 196 189 184 191 202 171 162 166 164 168 177 176 171 164 159 162 168 176 186 185 181 188 219 280 302 309 313 319 331 336 333
294 278 261 253 245 226 210 194 203 214 201 197 220 208 181 165 162 154 152 160 165 169 170 168 169 170 171 171 173 176 179 178 178 187 204 231 265 281 294 308 319 324 324 332
305 303 307 316 319 248 212 206 211 217 205 192 200 199 175 162 157 159 160 163 167 171 170 169 168 173 173 171 171 177 186 188 190 199 208 228 245 252 259 275 299 315 334 349